| time (UTC) | temp C | wind direction | speed KPH | gust KPH | rain 1hr cm | rain 24hr cm | rain mn cm | humidity % | barometer mb |
| 20260505123141 | 24 | 61 | 12.9 | 29.0 | 0.00 | 0.00 | 0.00 | 36 | 1006.5 |
| 20260505122639 | 24 | 143 | 12.9 | 29.0 | 0.00 | 0.00 | 0.00 | 36 | 1006.4 |
| 20260505122139 | 24 | 100 | 11.3 | 29.0 | 0.00 | 0.00 | 0.00 | 38 | 1006.5 |
| 20260505121637 | 25 | 112 | 12.9 | 25.7 | 0.00 | 0.00 | 0.00 | 36 | 1006.6 |
| 20260505121138 | 25 | 161 | 12.9 | 25.7 | 0.00 | 0.00 | 0.00 | 35 | 1006.4 |
| 20260505120636 | 26 | 144 | 11.3 | 27.4 | 0.00 | 0.00 | 0.00 | 34 | 1006.5 |
| 20260505120135 | 26 | 107 | 12.9 | 27.4 | 0.00 | 0.00 | 0.00 | 36 | 1006.5 |
| 20260505115635 | 26 | 97 | 14.5 | 25.7 | 0.00 | 0.00 | 0.00 | 37 | 1006.5 |
| 20260505115136 | 26 | 145 | 11.3 | 25.7 | 0.00 | 0.00 | 0.00 | 35 | 1006.5 |
| 20260505114636 | 25 | 16 | 11.3 | 22.5 | 0.00 | 0.00 | 0.00 | 37 | 1006.5 |
| 20260505114132 | 25 | 74 | 9.7 | 22.5 | 0.00 | 0.00 | 0.00 | 35 | 1006.6 |
| 20260505113632 | 26 | 98 | 9.7 | 20.9 | 0.00 | 0.00 | 0.00 | 36 | 1006.6 |
| 20260505113128 | 26 | 34 | 11.3 | 20.9 | 0.00 | 0.00 | 0.00 | 38 | 1006.5 |
| 20260505112627 | 26 | 129 | 11.3 | 20.9 | 0.00 | 0.00 | 0.00 | 34 | 1006.6 |
| 20260505112127 | 26 | 117 | 9.7 | 20.9 | 0.00 | 0.00 | 0.00 | 37 | 1006.6 |
| 20260505111628 | 26 | 143 | 9.7 | 20.9 | 0.00 | 0.00 | 0.00 | 36 | 1006.7 |
| 20260505111127 | 26 | 127 | 9.7 | 20.9 | 0.00 | 0.00 | 0.00 | 34 | 1006.7 |
| 20260505110628 | 26 | 153 | 9.7 | 20.9 | 0.00 | 0.00 | 0.00 | 35 | 1006.8 |
| 20260505110133 | 25 | 117 | 8.0 | 19.3 | 0.00 | 0.00 | 0.00 | 36 | 1006.8 |
| 20260505102125 | 25 | 36 | 6.4 | 12.9 | 0.00 | 0.00 | 0.00 | 36 | 1007.4 |
| 20260505101624 | 25 | 75 | 6.4 | 14.5 | 0.00 | 0.00 | 0.00 | 37 | 1007.5 |
| 20260505101125 | 24 | 120 | 6.4 | 17.7 | 0.00 | 0.00 | 0.00 | 40 | 1007.5 |
| 20260505100620 | 25 | 5 | 4.8 | 17.7 | 0.00 | 0.00 | 0.00 | 38 | 1007.5 |
| 20260505100115 | 24 | 13 | 3.2 | 11.3 | 0.00 | 0.00 | 0.00 | 38 | 1007.6 |
| 20260505095604 | 24 | 125 | 6.4 | 16.1 | 0.00 | 0.00 | 0.00 | 38 | 1007.7 |
| 20260505095100 | 24 | 119 | 6.4 | 16.1 | 0.00 | 0.00 | 0.00 | 40 | 1007.7 |
| 20260505094553 | 23 | 163 | 4.8 | 12.9 | 0.00 | 0.00 | 0.00 | 41 | 1007.8 |
| 20260505094051 | 23 | 159 | 4.8 | 12.9 | 0.00 | 0.00 | 0.00 | 41 | 1007.8 |
| 20260505093551 | 23 | 161 | 6.4 | 12.9 | 0.00 | 0.00 | 0.00 | 38 | 1007.9 |
| 20260505093052 | 23 | 165 | 6.4 | 12.9 | 0.00 | 0.00 | 0.00 | 41 | 1007.9 |
| 20260505092552 | 23 | 115 | 6.4 | 12.9 | 0.00 | 0.00 | 0.00 | 42 | 1007.9 |
| 20260505092047 | 23 | 143 | 6.4 | 14.5 | 0.00 | 0.00 | 0.00 | 40 | 1007.9 |
| 20260505091547 | 23 | 144 | 6.4 | 14.5 | 0.00 | 0.00 | 0.00 | 44 | 1007.9 |
| 20260505091047 | 23 | 140 | 6.4 | 14.5 | 0.00 | 0.00 | 0.00 | 42 | 1008.0 |
| 20260505090548 | 22 | 171 | 6.4 | 14.5 | 0.00 | 0.00 | 0.00 | 44 | 1008.0 |
| 20260505090055 | 22 | 157 | 4.8 | 9.7 | 0.00 | 0.00 | 0.00 | 42 | 1008.0 |
| 20260505085545 | 22 | 148 | 4.8 | 9.7 | 0.00 | 0.00 | 0.00 | 44 | 1008.1 |
| 20260505085045 | 22 | 144 | 4.8 | 9.7 | 0.00 | 0.00 | 0.00 | 44 | 1008.1 |
| 20260505084551 | 22 | 151 | 4.8 | 8.0 | 0.00 | 0.00 | 0.00 | 42 | 1008.1 |
| 20260505084045 | 22 | 144 | 4.8 | 8.0 | 0.00 | 0.00 | 0.00 | 44 | 1008.2 |
| 20260505083543 | 22 | 132 | 4.8 | 8.0 | 0.00 | 0.00 | 0.00 | 45 | 1008.2 |
| 20260505083043 | 21 | 127 | 4.8 | 8.0 | 0.00 | 0.00 | 0.00 | 45 | 1008.2 |
| 20260505082546 | 21 | 183 | 6.4 | 9.7 | 0.00 | 0.00 | 0.00 | 45 | 1008.3 |
| 20260505082045 | 21 | 147 | 4.8 | 12.9 | 0.00 | 0.00 | 0.00 | 46 | 1008.3 |
| 20260505081541 | 21 | 127 | 4.8 | 12.9 | 0.00 | 0.00 | 0.00 | 47 | 1008.3 |
| 20260505081038 | 20 | 87 | 6.4 | 11.3 | 0.00 | 0.00 | 0.00 | 48 | 1008.4 |
| 20260505080536 | 20 | 92 | 4.8 | 11.3 | 0.00 | 0.00 | 0.00 | 52 | 1008.3 |
| 20260505080036 | 20 | 122 | 3.2 | 11.3 | 0.00 | 0.00 | 0.00 | 50 | 1008.3 |
| 20260505075537 | 19 | 32 | 4.8 | 9.7 | 0.00 | 0.00 | 0.00 | 49 | 1008.3 |
| 20260505075035 | 19 | 69 | 4.8 | 9.7 | 0.00 | 0.00 | 0.00 | 51 | 1008.4 |
| 20260505074536 | 18 | 355 | 6.4 | 11.3 | 0.00 | 0.00 | 0.00 | 51 | 1008.4 |
| 20260505074037 | 18 | 21 | 6.4 | 11.3 | 0.00 | 0.00 | 0.00 | 52 | 1008.4 |
| 20260505073536 | 18 | 27 | 4.8 | 9.7 | 0.00 | 0.00 | 0.00 | 53 | 1008.4 |
| 20260505073035 | 18 | 17 | 4.8 | 9.7 | 0.00 | 0.00 | 0.00 | 52 | 1008.4 |
| 20260505072537 | 17 | 31 | 4.8 | 9.7 | 0.00 | 0.00 | 0.00 | 52 | 1008.5 |
| 20260505072040 | 17 | 21 | 4.8 | 9.7 | 0.00 | 0.00 | 0.00 | 53 | 1008.6 |
| 20260505071534 | 17 | 9 | 4.8 | 8.0 | 0.00 | 0.00 | 0.00 | 55 | 1008.7 |
| 20260505071032 | 17 | 17 | 6.4 | 8.0 | 0.00 | 0.00 | 0.00 | 53 | 1008.7 |
| 20260505070532 | 17 | 28 | 6.4 | 11.3 | 0.00 | 0.00 | 0.00 | 52 | 1008.7 |
| 20260505070031 | 17 | 22 | 6.4 | 11.3 | 0.00 | 0.00 | 0.00 | 54 | 1008.8 |
| 20260505065532 | 17 | 9 | 6.4 | 9.7 | 0.00 | 0.00 | 0.00 | 54 | 1008.7 |
| 20260505065033 | 17 | 13 | 4.8 | 8.0 | 0.00 | 0.00 | 0.00 | 54 | 1008.8 |
| 20260505064529 | 17 | 19 | 4.8 | 9.7 | 0.00 | 0.00 | 0.00 | 54 | 1008.8 |
| 20260505064031 | 17 | 5 | 3.2 | 9.7 | 0.00 | 0.00 | 0.00 | 54 | 1008.8 |
| 20260505063531 | 16 | 57 | 3.2 | 6.4 | 0.00 | 0.00 | 0.00 | 56 | 1008.9 |
| 20260505063031 | 16 | 69 | 3.2 | 8.0 | 0.00 | 0.00 | 0.00 | 57 | 1008.9 |
| 20260505062532 | 16 | 18 | 3.2 | 8.0 | 0.00 | 0.00 | 0.00 | 59 | 1008.9 |
| 20260505062031 | 15 | 28 | 1.6 | 6.4 | 0.00 | 0.00 | 0.00 | 60 | 1009.0 |
| 20260505061525 | 15 | 44 | 1.6 | 4.8 | 0.00 | 0.00 | 0.00 | 63 | 1009.0 |
| 20260505061025 | 14 | 44 | 3.2 | 4.8 | 0.00 | 0.00 | 0.00 | 67 | 1009.0 |
| 20260505060525 | 13 | 26 | 3.2 | 4.8 | 0.00 | 0.00 | 0.00 | 65 | 1009.2 |
| 20260505060028 | 13 | 27 | 3.2 | 6.4 | 0.00 | 0.00 | 0.00 | 69 | 1009.2 |
| 20260505055525 | 13 | 27 | 3.2 | 6.4 | 0.00 | 0.00 | 0.00 | 71 | 1009.0 |
| 20260505055022 | 12 | 30 | 3.2 | 4.8 | 0.00 | 0.00 | 0.00 | 74 | 1009.0 |
| 20260505054523 | 12 | 32 | 3.2 | 6.4 | 0.00 | 0.00 | 0.00 | 75 | 1009.0 |
| 20260505054021 | 11 | 35 | 3.2 | 6.4 | 0.00 | 0.00 | 0.00 | 76 | 1009.2 |
| 20260505053522 | 11 | 33 | 1.6 | 4.8 | 0.00 | 0.00 | 0.00 | 76 | 1009.2 |
| 20260505053026 | 10 | 38 | 0.0 | 4.8 | 0.00 | 0.00 | 0.00 | 78 | 1009.2 |
| 20260505052520 | 10 | 38 | 1.6 | 4.8 | 0.00 | 0.00 | 0.00 | 78 | 1009.2 |
| 20260505052019 | 9 | 38 | 1.6 | 4.8 | 0.00 | 0.00 | 0.00 | 79 | 1009.0 |
| 20260505051519 | 8 | 51 | 1.6 | 3.2 | 0.00 | 0.00 | 0.00 | 82 | 1009.0 |
| 20260505051019 | 8 | 40 | 1.6 | 4.8 | 0.00 | 0.00 | 0.00 | 83 | 1009.2 |
| 20260505050520 | 8 | 36 | 3.2 | 4.8 | 0.00 | 0.00 | 0.00 | 82 | 1009.2 |
| 20260505041501 | 7 | 43 | 0.0 | 0.0 | 0.00 | 0.00 | 0.00 | 78 | 1009.3 |
| 20260505041001 | 7 | 43 | 0.0 | 0.0 | 0.00 | 0.00 | 0.00 | 77 | 1009.3 |
| 20260505040501 | 8 | 43 | 0.0 | 0.0 | 0.00 | 0.00 | 0.00 | 77 | 1009.2 |
| 20260505040001 | 8 | 43 | 0.0 | 0.0 | 0.00 | 0.00 | 0.00 | 77 | 1009.3 |
| 20260505035501 | 8 | 43 | 0.0 | 0.0 | 0.00 | 0.00 | 0.00 | 76 | 1009.3 |
| 20260505034958 | 8 | 43 | 0.0 | 3.2 | 0.00 | 0.00 | 0.00 | 76 | 1009.3 |
| 20260505034447 | 8 | 43 | 1.6 | 3.2 | 0.00 | 0.00 | 0.00 | 77 | 1009.3 |
| 20260505033942 | 8 | 43 | 1.6 | 6.4 | 0.00 | 0.00 | 0.00 | 78 | 1009.2 |
| 20260505033442 | 9 | 14 | 1.6 | 6.4 | 0.00 | 0.00 | 0.00 | 77 | 1009.3 |
| 20260505032939 | 9 | 0 | 0.0 | 3.2 | 0.00 | 0.00 | 0.00 | 76 | 1009.3 |
| 20260505032438 | 9 | 0 | 0.0 | 3.2 | 0.00 | 0.00 | 0.00 | 77 | 1009.3 |
| 20260505031940 | 9 | 0 | 0.0 | 0.0 | 0.00 | 0.00 | 0.00 | 76 | 1009.4 |
| 20260505031438 | 9 | 0 | 0.0 | 0.0 | 0.00 | 0.00 | 0.00 | 76 | 1009.3 |
| 20260505030937 | 9 | 0 | 0.0 | 0.0 | 0.00 | 0.00 | 0.00 | 77 | 1009.3 |
| 20260505030437 | 10 | 0 | 0.0 | 0.0 | 0.00 | 0.00 | 0.00 | 79 | 1009.3 |
| 20260505025935 | 10 | 0 | 1.6 | 3.2 | 0.00 | 0.00 | 0.00 | 78 | 1009.4 |
| 20260505025435 | 9 | 0 | 1.6 | 4.8 | 0.00 | 0.00 | 0.00 | 76 | 1009.4 |
| 20260505024935 | 9 | 0 | 1.6 | 4.8 | 0.00 | 0.00 | 0.00 | 76 | 1009.5 |
| 20260505024434 | 9 | 326 | 1.6 | 4.8 | 0.00 | 0.00 | 0.00 | 77 | 1009.5 |
| 20260505023933 | 9 | 327 | 1.6 | 4.8 | 0.00 | 0.00 | 0.00 | 78 | 1009.4 |
| 20260505023434 | 9 | 348 | 1.6 | 4.8 | 0.00 | 0.00 | 0.00 | 75 | 1009.5 |
| 20260505022931 | 8 | 31 | 1.6 | 4.8 | 0.00 | 0.00 | 0.00 | 77 | 1009.4 |
| 20260505022433 | 8 | 49 | 3.2 | 6.4 | 0.00 | 0.00 | 0.00 | 77 | 1009.4 |
| 20260505021931 | 8 | 27 | 4.8 | 6.4 | 0.00 | 0.00 | 0.00 | 78 | 1009.4 |
| 20260505021433 | 8 | 29 | 4.8 | 8.0 | 0.00 | 0.00 | 0.00 | 79 | 1009.4 |
| 20260505020929 | 8 | 34 | 4.8 | 8.0 | 0.00 | 0.00 | 0.00 | 80 | 1009.4 |
| 20260505020429 | 8 | 28 | 3.2 | 6.4 | 0.00 | 0.00 | 0.00 | 81 | 1009.4 |
| 20260505015930 | 8 | 49 | 3.2 | 4.8 | 0.00 | 0.00 | 0.00 | 83 | 1009.5 |
| 20260505015428 | 7 | 54 | 1.6 | 4.8 | 0.00 | 0.00 | 0.00 | 83 | 1009.6 |
| 20260505014929 | 7 | 38 | 0.0 | 4.8 | 0.00 | 0.00 | 0.00 | 81 | 1009.6 |
| 20260505014430 | 7 | 53 | 0.0 | 0.0 | 0.00 | 0.00 | 0.00 | 81 | 1009.7 |
| 20260505013930 | 7 | 53 | 0.0 | 0.0 | 0.00 | 0.00 | 0.00 | 81 | 1009.7 |
| 20260505013429 | 7 | 53 | 0.0 | 0.0 | 0.00 | 0.00 | 0.00 | 80 | 1009.7 |
| 20260505012931 | 7 | 53 | 0.0 | 0.0 | 0.00 | 0.00 | 0.00 | 79 | 1009.8 |
| 20260505012432 | 8 | 53 | 0.0 | 0.0 | 0.00 | 0.00 | 0.00 | 79 | 1009.9 |
| 20260505011930 | 8 | 53 | 0.0 | 4.8 | 0.00 | 0.00 | 0.00 | 80 | 1009.9 |
| 20260505011429 | 8 | 53 | 1.6 | 6.4 | 0.00 | 0.00 | 0.00 | 82 | 1009.9 |
| 20260505010931 | 8 | 53 | 1.6 | 6.4 | 0.00 | 0.00 | 0.00 | 82 | 1010.0 |
| 20260505010431 | 8 | 255 | 0.0 | 0.0 | 0.00 | 0.00 | 0.00 | 81 | 1010.1 |
| 20260505005929 | 8 | 255 | 0.0 | 0.0 | 0.00 | 0.00 | 0.00 | 78 | 1010.2 |
| 20260505005430 | 8 | 255 | 0.0 | 0.0 | 0.00 | 0.00 | 0.00 | 78 | 1010.2 |
| 20260505004930 | 8 | 255 | 0.0 | 0.0 | 0.00 | 0.00 | 0.00 | 78 | 1010.1 |
| 20260505004431 | 8 | 255 | 0.0 | 0.0 | 0.00 | 0.00 | 0.00 | 78 | 1010.1 |
| 20260505003929 | 8 | 255 | 0.0 | 0.0 | 0.00 | 0.00 | 0.00 | 77 | 1010.1 |
| 20260505003430 | 8 | 255 | 0.0 | 0.0 | 0.00 | 0.00 | 0.00 | 76 | 1010.1 |
| 20260505002929 | 8 | 255 | 0.0 | 0.0 | 0.00 | 0.00 | 0.00 | 75 | 1010.3 |
| 20260505002439 | 8 | 255 | 0.0 | 0.0 | 0.00 | 0.00 | 0.00 | 74 | 1010.3 |
| 20260505001931 | 9 | 255 | 0.0 | 0.0 | 0.00 | 0.00 | 0.00 | 74 | 1010.4 |
| 20260505001431 | 9 | 239 | 0.0 | 0.0 | 0.00 | 0.00 | 0.00 | 73 | 1010.4 |
| 20260505000924 | 10 | 239 | 0.0 | 0.0 | 0.00 | 0.00 | 0.00 | 73 | 1010.5 |
| 20260505000416 | 10 | 239 | 0.0 | 0.0 | 0.00 | 0.00 | 0.00 | 74 | 1010.5 |
| 20260504235916 | 10 | 239 | 0.0 | 0.0 | 0.00 | 0.00 | 0.00 | 73 | 1010.5 |
| 20260504235418 | 10 | 239 | 0.0 | 0.0 | 0.00 | 0.00 | 0.00 | 74 | 1010.6 |
| 20260504234919 | 10 | 239 | 0.0 | 0.0 | 0.00 | 0.00 | 0.00 | 73 | 1010.7 |
| 20260504234417 | 10 | 239 | 0.0 | 3.2 | 0.00 | 0.00 | 0.00 | 74 | 1010.8 |
| 20260504233917 | 10 | 239 | 1.6 | 6.4 | 0.00 | 0.00 | 0.00 | 75 | 1010.8 |
| 20260504233416 | 10 | 242 | 1.6 | 6.4 | 0.00 | 0.00 | 0.00 | 73 | 1010.8 |
| 20260504232915 | 10 | 47 | 0.0 | 0.0 | 0.00 | 0.00 | 0.00 | 74 | 1011.0 |
| 20260504232415 | 10 | 47 | 0.0 | 0.0 | 0.00 | 0.00 | 0.00 | 73 | 1011.0 |
| 20260504231923 | 10 | 47 | 0.0 | 0.0 | 0.00 | 0.00 | 0.00 | 73 | 1011.0 |
| 20260504231413 | 10 | 47 | 0.0 | 0.0 | 0.00 | 0.00 | 0.00 | 70 | 1011.0 |
| 20260504230909 | 11 | 47 | 0.0 | 0.0 | 0.00 | 0.00 | 0.00 | 71 | 1010.8 |
| 20260504230408 | 11 | 46 | 0.0 | 0.0 | 0.00 | 0.00 | 0.00 | 71 | 1010.8 |
| 20260504225908 | 11 | 46 | 0.0 | 0.0 | 0.00 | 0.00 | 0.00 | 68 | 1011.0 |
| 20260504225407 | 11 | 46 | 0.0 | 0.0 | 0.00 | 0.00 | 0.00 | 67 | 1011.0 |
| 20260504224904 | 11 | 46 | 0.0 | 0.0 | 0.00 | 0.00 | 0.00 | 66 | 1011.1 |
| 20260504224403 | 11 | 27 | 0.0 | 0.0 | 0.00 | 0.00 | 0.00 | 65 | 1011.2 |
| 20260504223904 | 12 | 27 | 0.0 | 0.0 | 0.00 | 0.00 | 0.00 | 64 | 1011.2 |
| 20260504223402 | 12 | 27 | 0.0 | 0.0 | 0.00 | 0.00 | 0.00 | 64 | 1011.1 |
| 20260504222857 | 12 | 27 | 0.0 | 0.0 | 0.00 | 0.00 | 0.00 | 63 | 1011.2 |
| 20260504222358 | 12 | 27 | 0.0 | 0.0 | 0.00 | 0.00 | 0.00 | 64 | 1011.3 |
| 20260504221855 | 13 | 26 | 0.0 | 0.0 | 0.00 | 0.00 | 0.00 | 61 | 1011.4 |
| 20260504221352 | 13 | 26 | 0.0 | 0.0 | 0.00 | 0.00 | 0.00 | 62 | 1011.4 |
| 20260504220852 | 13 | 26 | 0.0 | 0.0 | 0.00 | 0.00 | 0.00 | 65 | 1011.4 |
| 20260504220348 | 13 | 26 | 0.0 | 0.0 | 0.00 | 0.00 | 0.00 | 62 | 1011.4 |
| 20260504215846 | 13 | 26 | 0.0 | 0.0 | 0.00 | 0.00 | 0.00 | 62 | 1011.5 |
| 20260504215344 | 14 | 26 | 0.0 | 0.0 | 0.00 | 0.00 | 0.00 | 63 | 1011.4 |
| 20260504214844 | 14 | 26 | 0.0 | 0.0 | 0.00 | 0.00 | 0.00 | 63 | 1011.4 |
| 20260504214344 | 14 | 26 | 0.0 | 0.0 | 0.00 | 0.00 | 0.00 | 61 | 1011.4 |
| 20260504213842 | 15 | 26 | 0.0 | 3.2 | 0.00 | 0.00 | 0.00 | 59 | 1011.5 |
| 20260504213338 | 15 | 26 | 1.6 | 6.4 | 0.00 | 0.00 | 0.00 | 53 | 1011.4 |
| 20260504212837 | 15 | 26 | 3.2 | 6.4 | 0.00 | 0.00 | 0.00 | 52 | 1011.4 |
| 20260504212334 | 15 | 39 | 3.2 | 6.4 | 0.00 | 0.00 | 0.00 | 55 | 1011.4 |
| 20260504211830 | 15 | 40 | 3.2 | 4.8 | 0.00 | 0.00 | 0.00 | 57 | 1011.4 |
| 20260504211330 | 15 | 56 | 3.2 | 4.8 | 0.00 | 0.00 | 0.00 | 56 | 1011.4 |
| 20260504210831 | 16 | 25 | 4.8 | 8.0 | 0.00 | 0.00 | 0.00 | 51 | 1011.4 |
| 20260504210338 | 16 | 20 | 4.8 | 8.0 | 0.00 | 0.00 | 0.00 | 49 | 1011.4 |
| 20260504205828 | 16 | 15 | 4.8 | 8.0 | 0.00 | 0.00 | 0.00 | 48 | 1011.5 |
| 20260504205326 | 16 | 23 | 3.2 | 8.0 | 0.00 | 0.00 | 0.00 | 48 | 1011.4 |
| 20260504204828 | 16 | 30 | 3.2 | 8.0 | 0.00 | 0.00 | 0.00 | 46 | 1011.3 |
| 20260504204322 | 17 | 26 | 3.2 | 6.4 | 0.00 | 0.00 | 0.00 | 46 | 1011.4 |
| 20260504203831 | 17 | 47 | 3.2 | 6.4 | 0.00 | 0.00 | 0.00 | 45 | 1011.4 |
| 20260504203321 | 17 | 31 | 3.2 | 6.4 | 0.00 | 0.00 | 0.00 | 45 | 1011.3 |
| 20260504202822 | 17 | 48 | 3.2 | 9.7 | 0.00 | 0.00 | 0.00 | 44 | 1011.4 |
| 20260504202325 | 17 | 40 | 3.2 | 12.9 | 0.00 | 0.00 | 0.00 | 43 | 1011.3 |
| 20260504201820 | 17 | 78 | 3.2 | 12.9 | 0.00 | 0.00 | 0.00 | 44 | 1011.3 |
| 20260504201319 | 17 | 82 | 4.8 | 12.9 | 0.00 | 0.00 | 0.00 | 44 | 1011.3 |
| 20260504200830 | 17 | 28 | 4.8 | 12.9 | 0.00 | 0.00 | 0.00 | 44 | 1011.4 |
| 20260504200314 | 17 | 65 | 4.8 | 14.5 | 0.00 | 0.00 | 0.00 | 43 | 1011.3 |
| 20260504195814 | 18 | 81 | 4.8 | 14.5 | 0.00 | 0.00 | 0.00 | 44 | 1011.3 |
| 20260504195309 | 18 | 45 | 3.2 | 12.9 | 0.00 | 0.00 | 0.00 | 45 | 1011.3 |
| 20260504194809 | 18 | 76 | 4.8 | 12.9 | 0.00 | 0.00 | 0.00 | 45 | 1011.3 |
| 20260504194309 | 18 | 56 | 3.2 | 11.3 | 0.00 | 0.00 | 0.00 | 44 | 1011.4 |
| 20260504193807 | 18 | 53 | 3.2 | 11.3 | 0.00 | 0.00 | 0.00 | 43 | 1011.3 |
| 20260504193307 | 18 | 62 | 4.8 | 12.9 | 0.00 | 0.00 | 0.00 | 43 | 1011.3 |
| 20260504192802 | 18 | 46 | 6.4 | 12.9 | 0.00 | 0.00 | 0.00 | 42 | 1011.4 |
| 20260504192304 | 18 | 70 | 4.8 | 11.3 | 0.00 | 0.00 | 0.00 | 42 | 1011.4 |
| 20260504191804 | 18 | 53 | 4.8 | 11.3 | 0.00 | 0.00 | 0.00 | 43 | 1011.4 |
| 20260504191301 | 18 | 71 | 4.8 | 11.3 | 0.00 | 0.00 | 0.00 | 42 | 1011.4 |
| 20260504190755 | 18 | 74 | 4.8 | 11.3 | 0.00 | 0.00 | 0.00 | 42 | 1011.4 |
| 20260504190254 | 19 | 69 | 4.8 | 11.3 | 0.00 | 0.00 | 0.00 | 43 | 1011.4 |
| 20260504185752 | 19 | 92 | 4.8 | 11.3 | 0.00 | 0.00 | 0.00 | 43 | 1011.5 |
| 20260504185251 | 19 | 86 | 3.2 | 11.3 | 0.00 | 0.00 | 0.00 | 43 | 1011.5 |
| 20260504184745 | 20 | 70 | 3.2 | 11.3 | 0.00 | 0.00 | 0.00 | 43 | 1011.4 |
| 20260504184244 | 20 | 96 | 3.2 | 8.0 | 0.00 | 0.00 | 0.00 | 41 | 1011.5 |
| 20260504183742 | 20 | 105 | 3.2 | 11.3 | 0.00 | 0.00 | 0.00 | 41 | 1011.5 |
| 20260504183241 | 20 | 79 | 4.8 | 12.9 | 0.00 | 0.00 | 0.00 | 40 | 1011.5 |
| 20260504182744 | 20 | 92 | 4.8 | 12.9 | 0.00 | 0.00 | 0.00 | 39 | 1011.4 |
| 20260504182237 | 20 | 92 | 4.8 | 12.9 | 0.00 | 0.00 | 0.00 | 39 | 1011.4 |
| 20260504181735 | 21 | 80 | 4.8 | 12.9 | 0.00 | 0.00 | 0.00 | 39 | 1011.4 |
| 20260504181236 | 21 | 80 | 4.8 | 12.9 | 0.00 | 0.00 | 0.00 | 39 | 1011.4 |
| 20260504180734 | 21 | 109 | 6.4 | 17.7 | 0.00 | 0.00 | 0.00 | 39 | 1011.3 |
| 20260504180233 | 21 | 103 | 6.4 | 17.7 | 0.00 | 0.00 | 0.00 | 39 | 1011.3 |
| 20260504175733 | 21 | 71 | 6.4 | 16.1 | 0.00 | 0.00 | 0.00 | 38 | 1011.3 |
| 20260504175235 | 21 | 96 | 4.8 | 12.9 | 0.00 | 0.00 | 0.00 | 38 | 1011.3 |
| 20260504174734 | 22 | 88 | 4.8 | 12.9 | 0.00 | 0.00 | 0.00 | 39 | 1011.3 |
| 20260504174230 | 22 | 86 | 4.8 | 11.3 | 0.00 | 0.00 | 0.00 | 39 | 1011.3 |
| 20260504173731 | 22 | 86 | 6.4 | 16.1 | 0.00 | 0.00 | 0.00 | 39 | 1011.3 |
| 20260504173225 | 22 | 73 | 6.4 | 16.1 | 0.00 | 0.00 | 0.00 | 39 | 1011.3 |
| 20260504172723 | 22 | 96 | 6.4 | 14.5 | 0.00 | 0.00 | 0.00 | 39 | 1011.3 |
| 20260504172217 | 23 | 63 | 4.8 | 14.5 | 0.00 | 0.00 | 0.00 | 40 | 1011.3 |
| 20260504171716 | 23 | 87 | 3.2 | 11.3 | 0.00 | 0.00 | 0.00 | 41 | 1011.4 |
| 20260504171213 | 23 | 93 | 4.8 | 11.3 | 0.00 | 0.00 | 0.00 | 40 | 1011.3 |
| 20260504170713 | 23 | 124 | 4.8 | 12.9 | 0.00 | 0.00 | 0.00 | 40 | 1011.3 |
| 20260504170212 | 23 | 136 | 4.8 | 12.9 | 0.00 | 0.00 | 0.00 | 39 | 1011.3 |
| 20260504160202 | 25 | 109 | 4.8 | 16.1 | 0.00 | 0.00 | 0.00 | 38 | 1011.6 |
| 20260504151144 | 25 | 96 | 9.7 | 17.7 | 0.00 | 0.00 | 0.00 | 37 | 1011.9 |
| 20260504150642 | 26 | 91 | 6.4 | 17.7 | 0.00 | 0.00 | 0.00 | 36 | 1011.9 |
| 20260504150140 | 26 | 103 | 8.0 | 17.7 | 0.00 | 0.00 | 0.00 | 37 | 1011.9 |
| 20260504141133 | 26 | 67 | 8.0 | 19.3 | 0.00 | 0.00 | 0.00 | 34 | 1012.4 |
| 20260504140632 | 26 | 97 | 8.0 | 19.3 | 0.00 | 0.00 | 0.00 | 33 | 1012.5 |
| 20260504140126 | 26 | 186 | 6.4 | 14.5 | 0.00 | 0.00 | 0.00 | 34 | 1012.5 |
| 20260504130609 | 25 | 253 | 4.8 | 11.3 | 0.00 | 0.00 | 0.00 | 36 | 1013.0 |
| 20260504130108 | 25 | 210 | 8.0 | 16.1 | 0.00 | 0.00 | 0.00 | 35 | 1013.2 |